Content
SEND FEEDBACK

Daily
Averages
Monthly
Summary
United States of America

DENVER CITY, TEXAS


Home > North America > United States > Texas
Elevation: 3590 feet     Latitude: 32 58N     Longitude: 102 50W

WEATHER
 
SELECT A DAY
Number of Records: 244,051;   Date Range: 4/19/04 - 8/28/14
 
SHARE

PRINT THIS DATA

[ ← Previous Day ]
WEATHER ALMANAC - JANUARY 31, 2013
[ Next Day → ]
[ °C ]   °F
Weather ElementAverageHighLow
Temperature46.1 °F61.5 °F (4:15 pm)31.3 °F (6:15 am)
Dewpoint13.8 °F20.3 °F (11:15 am)7.7 °F (3:55 am)
Humidity28.5 %41 % (6:15 am)16 % (3:35 pm)
Barometer30.17 in30.25 in (10:35 pm)30.12 in (12:35 am)
Wind Speed10 mph28.8 mph (10:35 am)
Wind Gust35.7 mph (10:55 am)
Weather ElementAverage
Visibility10 mi
Wind DirectionSSW (219.1 °)

Weather ElementTotal
Precipitation---
Heating Degree Days18.6 (Base 65)
Averaged from 67 records on January 31, 2013
WEATHER CONDITIONS BREAKOUT
WIND DIRECTION BREAKOUT
WEATHER BY HOUR - JANUARY 31, 2013
[ °C ]   °F
Local TimeTemperatureDewpointHumidityBarometerVisibilityWind DirectionWind SpeedGust SpeedPrecipitationEventsConditions
12:35 AM32.2 °F9.1 °F38 %30.12 in10.0 miWSW (250°)8.1 mphClear
12:55 AM32.9 °F8.2 °F36 %30.13 in10.0 miWSW (250°)8.1 mphClear
1:15 AM32.5 °F8.8 °F37 %30.13 in10.0 miWSW (240°)8.1 mphClear
1:35 AM32.0 °F10.2 °F40 %30.13 in10.0 miWSW (250°)9.2 mphClear
1:55 AM31.8 °F9.3 °F39 %30.14 in10.0 miWSW (240°)9.2 mphClear
2:15 AM31.5 °F8.4 °F38 %30.13 in10.0 miWSW (240°)9.2 mphClear
2:35 AM32.9 °F8.2 °F36 %30.14 in10.0 miSW (220°)11.5 mphClear
2:55 AM34.0 °F8.2 °F34 %30.14 in10.0 miSW (230°)10.4 mphClear
3:15 AM35.2 °F8.2 °F33 %30.14 in10.0 miSW (230°)12.7 mphClear
3:35 AM36.3 °F8.1 °F31 %30.14 in10.0 miWSW (240°)10.4 mphClear
3:55 AM36.5 °F7.7 °F30 %30.14 in10.0 miWSW (250°)10.4 mphClear
4:15 AM36.5 °F7.7 °F30 %30.13 in10.0 miWSW (250°)11.5 mph17.3 mphClear
4:35 AM36.3 °F7.9 °F31 %30.13 in10.0 miWest (260°)11.5 mphClear
4:55 AM35.8 °F8.6 °F32 %30.12 in10.0 miWest (260°)10.4 mphClear
5:15 AM35.1 °F8.8 °F34 %30.12 in10.0 miWSW (250°)11.5 mphClear
5:35 AM34.3 °F8.6 °F34 %30.14 in10.0 miWSW (250°)9.2 mphClear
5:55 AM32.9 °F9.1 °F37 %30.13 in10.0 miWSW (250°)6.9 mphClear
6:15 AM31.3 °F10.0 °F41 %30.13 in10.0 miCalmClear
6:35 AM31.8 °F9.9 °F40 %30.13 in10.0 miWest (270°)10.4 mphClear
6:55 AM35.1 °F9.7 °F35 %30.14 in10.0 miWest (270°)11.5 mphClear
7:15 AM36.3 °F9.5 °F33 %30.14 in10.0 miWest (270°)12.7 mphClear
7:35 AM35.6 °F9.5 °F34 %30.14 in10.0 miWest (260°)10.4 mphClear
7:55 AM34.7 °F9.9 °F36 %30.16 in10.0 miWest (270°)9.2 mphClear
8:15 AM34.9 °F10.2 °F36 %30.16 in10.0 miWest (280°)10.4 mphClear
8:35 AM37.0 °F10.9 °F34 %30.16 in10.0 miWest (280°)11.5 mphClear
8:55 AM39.6 °F12.0 °F32 %30.18 in10.0 miWest (280°)11.5 mphClear
9:15 AM41.7 °F13.1 °F31 %30.19 in10.0 miWest (280°)13.8 mphClear
9:35 AM44.8 °F14.4 °F29 %30.20 in10.0 miWest (280°)15.0 mphClear
9:55 AM48.0 °F15.8 °F28 %30.21 in10.0 miWNW (290°)20.7 mph24.2 mphClear
10:15 AM50.0 °F17.1 °F27 %30.21 in10.0 miWNW (300°)23.0 mph28.8 mphClear
10:35 AM51.1 °F18.3 °F27 %30.21 in10.0 miWNW (300°)28.8 mph33.4 mphClear
10:55 AM52.5 °F19.8 °F28 %30.21 in10.0 miNW (310°)25.3 mph35.7 mphClear
11:15 AM53.6 °F20.3 °F27 %30.21 in10.0 miNW (310°)26.5 mph32.2 mphClear
11:35 AM54.9 °F20.1 °F26 %30.21 in10.0 miWNW (300°)25.3 mph29.9 mphClear
11:55 AM55.8 °F19.9 °F25 %30.20 in10.0 miNW (320°)24.2 mph33.4 mphClear
12:15 PM56.7 °F19.6 °F24 %30.20 in10.0 miNW (310°)23.0 mph31.1 mphClear
12:35 PM57.0 °F19.8 °F23 %30.18 in10.0 miNNW (330°)17.3 mphClear
12:55 PM57.6 °F19.0 °F22 %30.17 in10.0 miNW (320°)15.0 mph20.7 mphClear
1:15 PM58.1 °F18.7 °F22 %30.15 in10.0 miWNW (290°)11.5 mph18.4 mphClear
1:35 PM59.0 °F18.3 °F21 %30.15 in10.0 miNW (310°)12.7 mphClear
1:55 PM59.4 °F17.2 °F19 %30.15 in10.0 miNNW (340°)10.4 mph17.3 mphClear
2:15 PM60.1 °F16.3 °F18 %30.15 in10.0 miNNW (330°)10.4 mph18.4 mphClear
2:35 PM60.3 °F16.0 °F18 %30.16 in10.0 miNW (310°)10.4 mphClear
2:55 PM59.9 °F15.4 °F18 %30.16 in10.0 miNW (320°)12.7 mphClear
3:15 PM61.0 °F15.1 °F17 %30.16 in10.0 miWNW (290°)11.5 mphClear
3:35 PM61.3 °F14.5 °F16 %30.17 in10.0 miNW (310°)9.2 mphClear
3:55 PM61.2 °F14.5 °F16 %30.16 in10.0 miWNW (300°)8.1 mphClear
4:15 PM61.5 °F14.4 °F16 %30.16 in10.0 miNNW (330°)11.5 mphClear
4:35 PM61.5 °F14.7 °F16 %30.15 in10.0 miNNW (340°)12.7 mph17.3 mphClear
4:55 PM61.3 °F14.4 °F16 %30.16 in10.0 miWNW (290°)9.2 mphClear
5:15 PM60.6 °F13.8 °F16 %30.16 in10.0 miNW (320°)9.2 mphClear
5:35 PM59.5 °F13.6 °F17 %30.16 in10.0 miNNW (340°)8.1 mphClear
6:15 PM57.0 °F15.3 °F19 %30.18 in10.0 miCalmClear
6:35 PM55.6 °F15.1 °F20 %30.19 in10.0 miCalmClear
6:55 PM53.4 °F15.1 °F22 %30.20 in10.0 miCalmClear
7:15 PM54.0 °F14.9 °F21 %30.20 in10.0 miCalmClear
7:35 PM51.8 °F15.6 °F24 %30.21 in10.0 miCalmClear
7:55 PM50.2 °F16.2 °F26 %30.21 in10.0 miNE (50°)4.6 mphClear
8:15 PM49.6 °F16.7 °F27 %30.22 in10.0 miCalmClear
8:35 PM48.4 °F17.2 °F29 %30.22 in10.0 miCalmClear
9:15 PM46.6 °F17.2 °F31 %30.23 in10.0 miCalmClear
9:35 PM43.7 °F19.2 °F38 %30.23 in10.0 miCalmClear
10:15 PM45.5 °F17.2 °F32 %30.24 in10.0 miCalmClear
10:35 PM44.1 °F17.8 °F35 %30.25 in10.0 miSW (220°)3.5 mphClear
10:55 PM41.9 °F18.1 °F38 %30.24 in10.0 miCalmClear
11:15 PM41.9 °F17.6 °F38 %30.25 in10.0 miCalmClear
11:35 PM43.3 °F17.4 °F35 %30.24 in10.0 miCalmClear
Hourly data recorded from KGNC, located miles away from Denver City, Texas







STORIES FROM OUR PARTNERS